Sunlight Mountain, CO

6:04 PM MDT on July 27, 2017 (GMT -0600)
Sunlight Mountain

Weather History for K5SM - September, 2013

Change the Weather History Date:

Sunday, September 8, 2013

  Actual Average (KRIL) Record (KRIL)
Temperature  
Mean Temperature 60 °F -  
Max Temperature 69 °F 81 °F 94 °F (1940)
Min Temperature 50 °F 46 °F 34 °F (1959)
Degree Days  
Heating Degree Days 6    
Growing Degree Days 10 (Base 50)    
Moisture  
Dew Point 43 °F    
Average Humidity 61    
Maximum Humidity 94    
Minimum Humidity 38    
Precipitation  
Precipitation 0.00 in - - ()
Sea Level Pressure  
Sea Level Pressure 30.48 in    
Wind  
Wind Speed 2 mph (WSW)    
Max Wind Speed 8 mph    
Max Gust Speed -    
Visibility 10 miles    
Events Rain , Thunderstorm    
Averages and records for this station are not official NWS values.
T = Trace of Precipitation, MM = Missing Value Source: NWS Daily Summary

Daily Weather History Graph

Daily Weather History Graph

Search for Another Location

Airport or City:

Trip Planner

Search our weather history database for the weather conditions in past years. The results will help you decide how hot, cold, wet, or windy it might be!

Date:

Astronomy

Sep. 08, 2013 Rise Set
Actual Time 6:44 AM MDT 7:28 PM MDT
Civil Twilight 6:17 AM MDT 7:55 PM MDT
Nautical Twilight 5:45 AM MDT 8:28 PM MDT
Astronomical Twilight 5:12 AM MDT 9:01 PM MDT
Moon 10:03 AM MDT (9/8) 9:07 PM MDT (9/8)
Length of Visible Light 13h 38m
Length of Day
12h 44m
Waxing Crescent, 11% of the Moon is Illuminated
Sep 8
Waxing Crescent
Sep 12
First Quarter
Sep 19
Full
Sep 26
Last Quarter
Oct 4
New

Hourly Weather History & Observations

Time (MDT) Temp. Dew Point Humidity Pressure Visibility Wind Dir Wind Speed Gust Speed Precip Events Conditions
12:00 AM 53.6 °F 42.8 °F 67% 30.55 in 10.0 mi ENE 4.6 mph - N/A   Mostly Cloudy
12:20 AM 53.6 °F 42.8 °F 67% 30.55 in 10.0 mi ENE 3.5 mph - N/A   Mostly Cloudy
12:40 AM 53.6 °F 41.0 °F 62% 30.55 in 10.0 mi Calm Calm - N/A   Scattered Clouds
1:00 AM 59.0 °F 37.4 °F 45% 30.55 in 10.0 mi Calm Calm - N/A   Light Drizzle
1:20 AM 53.6 °F 41.0 °F 62% 30.55 in 10.0 mi Calm Calm - N/A   Overcast
1:40 AM 53.6 °F 39.2 °F 58% 30.55 in 10.0 mi Calm Calm - N/A   Scattered Clouds
1:59 AM 53.6 °F 39.2 °F 58% 30.55 in 10.0 mi WSW 3.5 mph - N/A   Scattered Clouds
2:19 AM 53.6 °F 41.0 °F 62% 30.54 in 10.0 mi Calm Calm - N/A   Mostly Cloudy
2:40 AM 53.6 °F 41.0 °F 62% 30.55 in 10.0 mi Calm Calm - N/A   Scattered Clouds
3:00 AM 53.6 °F 41.0 °F 62% 30.55 in 10.0 mi Calm Calm - N/A   Scattered Clouds
3:20 AM 51.8 °F 41.0 °F 67% 30.54 in 10.0 mi South 3.5 mph - N/A   Scattered Clouds
3:39 AM 51.8 °F 41.0 °F 67% 30.53 in 10.0 mi Calm Calm - N/A   Mostly Cloudy
4:00 AM 53.6 °F 39.2 °F 58% 30.53 in 10.0 mi Calm Calm - N/A   Overcast
4:20 AM 53.6 °F 39.2 °F 58% 30.52 in 10.0 mi Calm Calm - N/A   Mostly Cloudy
4:40 AM 51.8 °F 39.2 °F 62% 30.52 in 10.0 mi Calm Calm - N/A   Scattered Clouds
5:00 AM 51.8 °F 39.2 °F 62% 30.52 in 10.0 mi Calm Calm - N/A   Scattered Clouds
5:20 AM 51.8 °F 37.4 °F 58% 30.52 in 10.0 mi Calm Calm - N/A   Clear
5:39 AM 51.8 °F 37.4 °F 58% 30.52 in 10.0 mi Calm Calm - N/A   Clear
6:00 AM 51.8 °F 39.2 °F 62% 30.52 in 10.0 mi Calm Calm - N/A   Clear
6:20 AM 51.8 °F 37.4 °F 58% 30.52 in 10.0 mi Calm Calm - N/A   Clear
6:40 AM 51.8 °F 39.2 °F 62% 30.52 in 10.0 mi Calm Calm - N/A   Clear
7:00 AM 51.8 °F 39.2 °F 62% 30.52 in 10.0 mi Calm Calm - N/A   Scattered Clouds
7:20 AM 51.8 °F 39.2 °F 62% 30.52 in 10.0 mi Calm Calm - N/A   Scattered Clouds
7:39 AM 53.6 °F 37.4 °F 54% 30.51 in 10.0 mi Calm Calm - N/A   Clear
8:00 AM 53.6 °F 39.2 °F 58% 30.51 in 10.0 mi Calm Calm - N/A   Clear
8:20 AM 53.6 °F 41.0 °F 62% 30.51 in 10.0 mi Calm Calm - N/A   Scattered Clouds
8:40 AM 53.6 °F 41.0 °F 62% 30.51 in 10.0 mi Calm Calm - N/A   Scattered Clouds
9:00 AM 55.4 °F 41.0 °F 58% 30.51 in 10.0 mi Calm Calm - N/A   Mostly Cloudy
9:20 AM 55.4 °F 41.0 °F 58% 30.51 in 10.0 mi Calm Calm - N/A   Scattered Clouds
9:40 AM 57.2 °F 42.8 °F 59% 30.51 in 10.0 mi Calm Calm - N/A   Scattered Clouds
10:00 AM 57.2 °F 42.8 °F 59% 30.51 in 10.0 mi Calm Calm - N/A   Scattered Clouds
10:20 AM 59.0 °F 44.6 °F 59% 30.51 in 10.0 mi Calm Calm - N/A   Clear
10:40 AM 60.8 °F 44.6 °F 55% 30.51 in 10.0 mi Calm Calm - N/A   Scattered Clouds
11:00 AM 62.6 °F 42.8 °F 48% 30.50 in 10.0 mi SSW 4.6 mph - N/A   Mostly Cloudy
11:20 AM 64.4 °F 44.6 °F 49% 30.50 in 10.0 mi WSW 3.5 mph - N/A   Mostly Cloudy
11:40 AM 66.2 °F 44.6 °F 46% 30.50 in 10.0 mi Calm Calm - N/A   Scattered Clouds
12:00 PM 68.0 °F 42.8 °F 40% 30.50 in 10.0 mi WSW 4.6 mph - N/A   Scattered Clouds
12:19 PM 69.8 °F 44.6 °F 40% 30.50 in 10.0 mi Calm Calm - N/A   Scattered Clouds
12:40 PM 68.0 °F 42.8 °F 40% 30.50 in 10.0 mi Calm Calm - N/A   Mostly Cloudy
1:00 PM 68.0 °F 42.8 °F 40% 30.49 in 10.0 mi West 3.5 mph - N/A   Scattered Clouds
1:19 PM 68.0 °F 42.8 °F 40% 30.49 in 10.0 mi Calm Calm - N/A   Scattered Clouds
1:40 PM 68.0 °F 44.6 °F 43% 30.48 in 10.0 mi Calm Calm - N/A   Mostly Cloudy
2:00 PM 66.2 °F 44.6 °F 46% 30.47 in 10.0 mi Calm Calm - N/A   Mostly Cloudy
2:20 PM 69.8 °F 46.4 °F 43% 30.46 in 10.0 mi Calm Calm - N/A   Mostly Cloudy
2:40 PM 68.0 °F 42.8 °F 40% 30.46 in 10.0 mi Calm Calm - N/A   Scattered Clouds
3:00 PM 68.0 °F 42.8 °F 40% 30.45 in 10.0 mi Calm Calm - N/A   Mostly Cloudy
3:20 PM 68.0 °F 44.6 °F 43% 30.45 in 10.0 mi West 4.6 mph - N/A   Scattered Clouds
3:40 PM 69.8 °F 44.6 °F 40% 30.43 in 10.0 mi Calm Calm - N/A   Scattered Clouds
3:59 PM 69.8 °F 42.8 °F 38% 30.42 in 10.0 mi West 3.5 mph - N/A   Clear
4:20 PM 62.6 °F 44.6 °F 52% 30.42 in 10.0 mi West 4.6 mph - N/A   Scattered Clouds
4:40 PM 64.4 °F 44.6 °F 49% 30.41 in 10.0 mi WSW 4.6 mph - N/A   Scattered Clouds
5:00 PM 60.8 °F 44.6 °F 55% 30.41 in 10.0 mi WSW 5.8 mph - N/A   Clear
5:20 PM 60.8 °F 46.4 °F 59% 30.41 in 10.0 mi WSW 5.8 mph - N/A   Clear
5:39 PM 60.8 °F 46.4 °F 59% 30.42 in 10.0 mi WSW 5.8 mph - N/A   Scattered Clouds
6:00 PM 59.0 °F 46.4 °F 63% 30.42 in 10.0 mi WSW 4.6 mph - N/A   Mostly Cloudy
6:20 PM 59.0 °F 46.4 °F 63% 30.41 in 10.0 mi Calm Calm - N/A   Scattered Clouds
6:39 PM 59.0 °F 46.4 °F 63% 30.42 in 10.0 mi Calm Calm - N/A   Mostly Cloudy
7:00 PM 57.2 °F 46.4 °F 67% 30.42 in 10.0 mi Calm Calm - N/A   Overcast
7:20 PM 55.4 °F 46.4 °F 72% 30.42 in 10.0 mi Calm Calm - N/A Rain , Thunderstorm Light Thunderstorms and Rain
7:40 PM 53.6 °F 46.4 °F 77% 30.41 in 10.0 mi WSW 8.1 mph - N/A   Scattered Clouds
8:00 PM 51.8 °F 46.4 °F 82% 30.41 in 10.0 mi WSW 4.6 mph - N/A   Scattered Clouds
8:20 PM 51.8 °F 46.4 °F 82% 30.42 in 10.0 mi West 5.8 mph - N/A   Mostly Cloudy
8:40 PM 51.8 °F 46.4 °F 82% 30.42 in 10.0 mi West 8.1 mph - N/A Thunderstorm Mostly Cloudy
9:00 PM 50.0 °F 46.4 °F 87% 30.42 in 10.0 mi West 5.8 mph - N/A Thunderstorm Mostly Cloudy
9:20 PM 50.0 °F 48.2 °F 94% 30.42 in 10.0 mi WSW 3.5 mph - N/A   Mostly Cloudy
9:40 PM 50.0 °F 48.2 °F 94% 30.43 in 10.0 mi WSW 3.5 mph - N/A   Overcast
10:00 PM 50.0 °F 46.4 °F 87% 30.43 in 10.0 mi WSW 3.5 mph - N/A   Mostly Cloudy
10:21 PM 50.0 °F 48.2 °F 94% 30.43 in 10.0 mi Calm Calm - N/A   Mostly Cloudy
10:41 PM 50.0 °F 48.2 °F 94% 30.43 in 10.0 mi Calm Calm - N/A Rain Rain
11:01 PM 50.0 °F 48.2 °F 94% 30.43 in 10.0 mi West 3.5 mph - N/A   Overcast
11:21 PM 50.0 °F 46.4 °F 87% 30.43 in 10.0 mi Calm Calm - N/A   Overcast
11:41 PM 50.0 °F 46.4 °F 87% 30.43 in 10.0 mi Calm Calm - N/A   Overcast